Tracking 19245 objects as of 14-Aug-2018
HD Live streaming from Space Station
objects crossing your sky now

FENGYUN 1C DEB

Track FENGYUN 1C DEB now!
10-day predictions


NORAD ID: 30508
Int'l Code: 1999-025AHW
Perigee: 621.2 km
Apogee: 1,009.2 km
Inclination: 99.2 °
Period: 101.0 minutes
Semi major axis: 7186 km
RCS: 0.0117 m2 (small)
Launch date: May 10, 1999
Source: People's Republic of China (PRC)
Launch site: Taiyaun Space Center, China (TSC)

Note: This is SATELLITE DEBRIS
aabbcc
Your satellite tracking list
Your tracking list is empty




NASA's NSSDC Master Catalog

Two Line Element Set (TLE):
1 30508U 99025AHW 18224.41092275 +.00001138 +00000-0 +34843-3 0  9996
2 30508 099.2324 018.8488 0269965 343.2300 067.4325 14.25125955594325
Source of the keplerian elements: AFSPC